ARIANE 2 DEB, 27030

Orbit data source: Space-Track

ARIANE 2 DEB, 27030 is space debris in HEO originally from a launch on Fri, 27 Jan 1989 UTC launched from the French Guiana (FRGUI). Debris objects in space refer to the collection of defunct objects orbiting the Earth. Examples of debris include non-operational satellites, rocket bodies, and fragments generated from explosions, collisions, or faulty payload assembly.

Loading next visibility...
Identifier
27030, 1989-006K
Orbit
HEO
Country
Flag of FRFR
Related business
Manufacturer
EADS/LV
Mission
Spacecraft
Bus & Motor
Unknown
Mass
Unknown
Launch date (UTC)
1989-01-27 (37 years ago)
Launch vehicle
Unknown
Launch site
French Guiana (FRGUI)
Object type
Payload
Rocket body
Debris
Shape & HBR
Unknown shape, 0.4 m
Radar Cross Section
Medium (>0.1 m² and <1 m²)

Expand to show TLE details & history
Last TLE update: 17 hours ago

TLE from 17 hours ago
0 ARIANE 2 DEB
1 27030U 89006K   25348.90788268  .00000088  00000-0  63786-3 0  9994
2 27030   8.4791  30.3163 7100974 166.8159 232.1972  2.37451501205598
Epoch: 2025-12-14T21:47Z
TLE epoch observation values (Epoch: 2025-12-14T21:47:21.063Z)
Latitude
Longitude
-20.38991°
Altitude
31,776.245 km
Speed
2.025 km/s
True Right ascension
02h 01m 02s
True Declination
0° 00' 00"
Sunlit
Object was in daylight at epoch
Visualization orbit readout
Latitude
Unknown
Longitude
Unknown
Altitude
Unknown
Speed
Unknown
Apparent Right ascension
Unknown
Apparent Declination
Unknown
Sunlit
N/A
Visualization observer readout
Local Sidereal Time
13:23:41
Azimuth
Unknown
Elevation
Unknown
Doppler factor
Unknown
Orbital elements
Apogee altitude
34,216.356 km
Perigee altitude
503.605 km
Semi-major axis
23,738.118 km
Eccentricity
0.7101
Inclination
8.4791°
RAAN
30.3163°
Arg. of periapsis
166.8159°
True anomaly
193.0941°
Mean anomaly
232.1972°
Eccentric anomaly
211.15084°
Mean motion
0.59344 °/min
Orbital period
606.64 mins
BSTAR
0.00063786
Loading maneuver chart data...
Computing Atmospheric mass density...
Loading historical data...
Loading historical data...
Loading historical data...
Loading historical data...
Loading historical data...
Loading historical data...
Loading historical data...

Documentation

Showing up to 5 results
|